Yankton, SD

2:07 PM CDT on April 26, 2017 (GMT -0500)
Gurney Municipal

Weather History for KYKN - May, 2013

Change the Weather History Date:

Thursday, May 16, 2013

  Actual Average Record
Temperature  
Mean Temperature 68 °F -  
Max Temperature 82 °F 75 °F 89 °F (1987)
Min Temperature 53 °F 46 °F 28 °F (2014)
Cooling Degree Days 2    
Growing Degree Days 18 (Base 50)    
Moisture  
Dew Point 50 °F    
Average Humidity 62    
Maximum Humidity 88    
Minimum Humidity 26    
Precipitation  
Precipitation 0.08 in - - ()
Sea Level Pressure  
Sea Level Pressure 29.84 in    
Wind  
Wind Speed 8 mph (East)    
Max Wind Speed 28 mph    
Max Gust Speed 39 mph    
Visibility 10 miles    
Events Thunderstorm    
Averages and records for this station are not official NWS values.
T = Trace of Precipitation, MM = Missing Value Source: NWS Daily Summary

Daily Weather History Graph

Daily Weather History Graph

Search for Another Location

Airport or City:

Trip Planner

Search our weather history database for the weather conditions in past years. The results will help you decide how hot, cold, wet, or windy it might be!

Date:

Astronomy

May. 16, 2013 Rise Set
Actual Time 6:05 AM CDT 8:47 PM CDT
Civil Twilight 5:32 AM CDT 9:20 PM CDT
Nautical Twilight 4:51 AM CDT 10:01 PM CDT
Astronomical Twilight 4:04 AM CDT 10:48 PM CDT
Moon 11:42 AM CDT (5/16) 1:06 AM CDT (5/16)
Length of Visible Light 15h 47m
Length of Day
14h 41m
Waxing Crescent, 36% of the Moon is Illuminated
May 16
Waxing Crescent
May 17
First Quarter
May 24
Full
May 31
Last Quarter
Jun 8
New

Hourly Weather History & Observations

Time (CDT) Temp. Dew Point Humidity Pressure Visibility Wind Dir Wind Speed Gust Speed Precip Events Conditions
12:15 AM 66.2 °F 44.6 °F 46% 29.89 in 10.0 mi NNE 6.9 mph - N/A   Clear
12:35 AM 64.4 °F 44.6 °F 49% 29.90 in 10.0 mi NE 6.9 mph - N/A   Clear
12:55 AM 64.4 °F 44.6 °F 49% 29.90 in 10.0 mi NE 6.9 mph - N/A   Clear
1:15 AM 62.6 °F 44.6 °F 52% 29.90 in 10.0 mi East 3.5 mph - N/A   Clear
1:35 AM 64.4 °F 44.6 °F 49% 29.90 in 10.0 mi East 4.6 mph - N/A   Clear
1:55 AM 62.6 °F 44.6 °F 52% 29.89 in 10.0 mi ENE 3.5 mph - N/A   Clear
2:15 AM 62.6 °F 44.6 °F 52% 29.89 in 10.0 mi NE 4.6 mph - N/A   Clear
2:35 AM 62.6 °F 44.6 °F 52% 29.88 in 10.0 mi ENE 5.8 mph - N/A   Clear
2:55 AM 62.6 °F 44.6 °F 52% 29.87 in 10.0 mi ENE 5.8 mph - N/A   Clear
3:15 AM 60.8 °F 44.6 °F 55% 29.87 in 10.0 mi ENE 5.8 mph - N/A   Clear
3:35 AM 60.8 °F 46.4 °F 59% 29.87 in 10.0 mi NE 4.6 mph - N/A   Clear
3:55 AM 60.8 °F 44.6 °F 55% 29.87 in 10.0 mi NE 4.6 mph - N/A   Clear
4:15 AM 59.0 °F 46.4 °F 63% 29.88 in 10.0 mi SSE 6.9 mph - N/A   Clear
4:35 AM 57.2 °F 46.4 °F 67% 29.88 in 10.0 mi SSE 4.6 mph - N/A   Clear
4:55 AM 57.2 °F 46.4 °F 67% 29.88 in 10.0 mi Calm Calm - N/A   Clear
5:15 AM 57.2 °F 46.4 °F 67% 29.87 in 10.0 mi Calm Calm - N/A   Clear
5:35 AM 55.4 °F 46.4 °F 72% 29.87 in 10.0 mi NE 4.6 mph - N/A   Clear
5:55 AM 53.6 °F 46.4 °F 77% 29.88 in 10.0 mi NE 3.5 mph - N/A   Clear
6:15 AM 55.4 °F 46.4 °F 72% 29.88 in 10.0 mi Calm Calm - N/A   Clear
6:35 AM 55.4 °F 46.4 °F 72% 29.88 in 10.0 mi Calm Calm - N/A   Clear
6:55 AM 55.4 °F 46.4 °F 72% 29.89 in 10.0 mi East 3.5 mph - N/A   Clear
7:15 AM 55.4 °F 46.4 °F 72% 29.89 in 10.0 mi East 3.5 mph - N/A   Clear
7:35 AM 57.2 °F 48.2 °F 72% 29.89 in 9.0 mi East 5.8 mph - N/A   Clear
7:55 AM 59.0 °F 48.2 °F 67% 29.89 in 10.0 mi East 4.6 mph - N/A   Clear
8:15 AM 60.8 °F 48.2 °F 63% 29.89 in 10.0 mi East 5.8 mph - N/A   Clear
8:35 AM 62.6 °F 48.2 °F 59% 29.88 in 10.0 mi East 6.9 mph - N/A   Clear
8:55 AM 64.4 °F 48.2 °F 56% 29.88 in 10.0 mi East 6.9 mph - N/A   Clear
9:15 AM 66.2 °F 48.2 °F 52% 29.87 in 10.0 mi East 8.1 mph - N/A   Clear
9:35 AM 69.8 °F 48.2 °F 46% 29.86 in 10.0 mi East 6.9 mph - N/A   Clear
9:55 AM 73.4 °F 50.0 °F 44% 29.85 in 10.0 mi East 10.4 mph - N/A   Clear
10:15 AM 75.2 °F 50.0 °F 41% 29.85 in 10.0 mi East 12.7 mph 17.3 mph N/A   Clear
10:35 AM 77.0 °F 48.2 °F 36% 29.84 in 10.0 mi ESE 13.8 mph 18.4 mph N/A   Clear
10:55 AM 78.8 °F 46.4 °F 32% 29.84 in 10.0 mi ESE 18.4 mph - N/A   Clear
11:15 AM 78.8 °F 46.4 °F 32% 29.83 in 10.0 mi ESE 16.1 mph 24.2 mph N/A   Clear
11:35 AM 80.6 °F 46.4 °F 30% 29.83 in 10.0 mi SE 18.4 mph 21.9 mph N/A   Clear
11:55 AM 80.6 °F 46.4 °F 30% 29.82 in 10.0 mi ESE 15.0 mph 20.7 mph N/A   Clear
12:15 PM 78.8 °F 44.6 °F 30% 29.82 in 10.0 mi ESE 15.0 mph 21.9 mph N/A   Clear
12:35 PM 80.6 °F 44.6 °F 28% 29.81 in 10.0 mi ESE 19.6 mph 24.2 mph N/A   Clear
12:55 PM 82.4 °F 44.6 °F 26% 29.79 in 10.0 mi East 18.4 mph 24.2 mph N/A   Clear
1:15 PM 80.6 °F 44.6 °F 28% 29.80 in 10.0 mi SE 20.7 mph 24.2 mph N/A   Clear
1:35 PM 78.8 °F 42.8 °F 28% 29.81 in 10.0 mi ESE 13.8 mph 21.9 mph N/A   Mostly Cloudy
2:15 PM 78.8 °F 44.6 °F 30% 29.82 in 10.0 mi SE 4.6 mph - N/A Thunderstorm Overcast
2:35 PM 64.4 °F 55.4 °F 73% 29.86 in 10.0 mi West 27.6 mph 39.1 mph 0.02 in Thunderstorm Mostly Cloudy
2:55 PM 60.8 °F 55.4 °F 82% 29.87 in 10.0 mi WNW 21.9 mph 34.5 mph 0.06 in Thunderstorm Mostly Cloudy
3:15 PM 62.6 °F 55.4 °F 77% 29.88 in 10.0 mi WNW 15.0 mph - 0.01 in Thunderstorm Overcast
4:35 PM 60.8 °F 55.4 °F 82% 29.81 in 10.0 mi NE 10.4 mph - N/A   Overcast
5:15 PM 62.6 °F 55.4 °F 77% 29.78 in 10.0 mi NE 10.4 mph - N/A   Mostly Cloudy
5:35 PM 64.4 °F 57.2 °F 77% 29.75 in 10.0 mi ENE 17.3 mph - N/A   Partly Cloudy
5:55 PM 64.4 °F 57.2 °F 77% 29.75 in 10.0 mi ENE 15.0 mph - 0.01 in   Partly Cloudy
6:15 PM 64.4 °F 57.2 °F 77% 29.74 in 10.0 mi ENE 15.0 mph - N/A   Mostly Cloudy
6:35 PM 64.4 °F 55.4 °F 73% 29.75 in 10.0 mi ENE 9.2 mph - N/A   Overcast
6:55 PM 64.4 °F 55.4 °F 73% 29.75 in 10.0 mi ENE 9.2 mph - N/A   Overcast
7:15 PM 64.4 °F 57.2 °F 77% 29.76 in 10.0 mi East 5.8 mph - N/A   Overcast
7:35 PM 64.4 °F 57.2 °F 77% 29.76 in 10.0 mi ESE 4.6 mph - N/A   Overcast
7:55 PM 64.4 °F 57.2 °F 77% 29.77 in 10.0 mi ESE 3.5 mph - N/A   Overcast
8:15 PM 64.4 °F 57.2 °F 77% 29.78 in 10.0 mi SSE 5.8 mph - N/A   Overcast
8:35 PM 64.4 °F 57.2 °F 77% 29.79 in 10.0 mi Calm Calm - N/A Thunderstorm Overcast
8:55 PM 64.4 °F 57.2 °F 77% 29.79 in 10.0 mi NE 8.1 mph - N/A   Mostly Cloudy
9:15 PM 62.6 °F 57.2 °F 82% 29.79 in 10.0 mi East 6.9 mph - N/A   Mostly Cloudy
9:35 PM 62.6 °F 57.2 °F 82% 29.79 in 10.0 mi NE 5.8 mph - N/A   Scattered Clouds
9:55 PM 62.6 °F 59.0 °F 88% 29.80 in 10.0 mi ENE 5.8 mph - N/A   Mostly Cloudy
10:15 PM 62.6 °F 57.2 °F 82% 29.82 in 10.0 mi NNE 5.8 mph - N/A   Mostly Cloudy
10:35 PM 62.6 °F 57.2 °F 82% 29.81 in 10.0 mi NE 6.9 mph - N/A   Partly Cloudy
10:55 PM 60.8 °F 57.2 °F 88% 29.81 in 10.0 mi NE 9.2 mph - N/A   Clear
11:15 PM 62.6 °F 57.2 °F 82% 29.82 in 10.0 mi NE 10.4 mph - N/A   Partly Cloudy
11:35 PM 60.8 °F 57.2 °F 88% 29.83 in 10.0 mi NE 8.1 mph - N/A   Mostly Cloudy
11:55 PM 60.8 °F 57.2 °F 88% 29.82 in 10.0 mi ENE 9.2 mph - N/A   Mostly Cloudy